| time (UTC) | temp F | wind direction | speed knots | gust knots | rain 1hr in | rain 24hr in | rain mn in | humidity % | barometer mb |
| 20260508060027 | 45 | 235 | 0.0 | 0.9 | 0.00 | 0.00 | 0.00 | 91 | 1015.6 |
| 20260508054532 | 45 | 235 | 0.0 | 0.9 | 0.00 | 0.00 | 0.00 | 90 | 1015.6 |
| 20260508053024 | 46 | 205 | 0.0 | 0.9 | 0.00 | 0.00 | 0.00 | 90 | 1015.8 |
| 20260508051518 | 46 | 184 | 0.0 | 1.7 | 0.00 | 0.00 | 0.00 | 89 | 1015.6 |
| 20260508050020 | 47 | 192 | 0.0 | 1.7 | 0.00 | 0.00 | 0.00 | 89 | 1015.7 |
| 20260508044521 | 47 | 240 | 0.0 | 1.7 | 0.00 | 0.00 | 0.00 | 88 | 1015.8 |
| 20260508043024 | 48 | 182 | 0.0 | 0.9 | 0.00 | 0.00 | 0.00 | 87 | 1016.0 |
| 20260508041523 | 49 | 188 | 0.0 | 2.6 | 0.00 | 0.00 | 0.00 | 86 | 1015.8 |
| 20260508040040 | 49 | 180 | 0.9 | 2.6 | 0.00 | 0.00 | 0.00 | 85 | 1015.9 |
| 20260508034536 | 49 | 186 | 0.9 | 1.7 | 0.00 | 0.00 | 0.00 | 86 | 1016.0 |
| 20260508033022 | 50 | 188 | 0.0 | 0.9 | 0.00 | 0.00 | 0.00 | 86 | 1015.8 |
| 20260508031523 | 50 | 188 | 0.0 | 2.6 | 0.00 | 0.00 | 0.00 | 83 | 1015.7 |
| 20260508030026 | 52 | 190 | 0.9 | 2.6 | 0.00 | 0.00 | 0.00 | 81 | 1015.6 |
| 20260508024528 | 52 | 185 | 0.0 | 2.6 | 0.00 | 0.00 | 0.00 | 80 | 1015.4 |
| 20260508023024 | 53 | 188 | 0.9 | 1.7 | 0.00 | 0.00 | 0.00 | 79 | 1015.4 |
| 20260508021520 | 53 | 189 | 0.0 | 1.7 | 0.00 | 0.00 | 0.00 | 78 | 1015.4 |
| 20260508020008 | 54 | 184 | 0.9 | 1.7 | 0.00 | 0.00 | 0.00 | 78 | 1015.1 |
| 20260508014508 | 54 | 293 | 0.0 | 0.0 | 0.00 | 0.00 | 0.00 | 77 | 1014.7 |
| 20260508013011 | 55 | 293 | 0.0 | 0.9 | 0.00 | 0.00 | 0.00 | 75 | 1014.5 |
| 20260508011509 | 57 | 293 | 0.0 | 0.0 | 0.00 | 0.00 | 0.00 | 73 | 1014.4 |
| 20260508010013 | 59 | 294 | 0.0 | 0.9 | 0.00 | 0.00 | 0.00 | 68 | 1014.4 |
| 20260508004508 | 61 | 294 | 0.0 | 0.0 | 0.00 | 0.00 | 0.00 | 61 | 1014.5 |
| 20260508003012 | 63 | 294 | 0.0 | 0.9 | 0.00 | 0.00 | 0.00 | 59 | 1014.5 |
| 20260508001514 | 65 | 293 | 0.0 | 3.5 | 0.00 | 0.00 | 0.00 | 51 | 1014.5 |
| 20260508000017 | 65 | 352 | 0.0 | 2.6 | 0.00 | 0.00 | 0.00 | 50 | 1014.5 |
| 20260507234528 | 66 | 338 | 0.0 | 3.5 | 0.00 | 0.00 | 0.00 | 51 | 1014.5 |
| 20260507233017 | 67 | 129 | 0.9 | 4.3 | 0.00 | 0.00 | 0.00 | 42 | 1014.6 |
| 20260507231518 | 67 | 317 | 0.9 | 3.5 | 0.00 | 0.00 | 0.00 | 47 | 1014.7 |
| 20260507230023 | 67 | 343 | 0.9 | 5.2 | 0.00 | 0.00 | 0.00 | 42 | 1014.7 |
| 20260507224522 | 68 | 329 | 0.0 | 4.3 | 0.00 | 0.00 | 0.00 | 45 | 1015.0 |
| 20260507223021 | 68 | 257 | 0.9 | 6.1 | 0.00 | 0.00 | 0.00 | 45 | 1015.1 |
| 20260507221530 | 68 | 243 | 0.0 | 7.0 | 0.00 | 0.00 | 0.00 | 41 | 1015.0 |
| 20260507220021 | 68 | 210 | 1.7 | 4.3 | 0.00 | 0.00 | 0.00 | 42 | 1015.0 |
| 20260507214524 | 68 | 15 | 1.7 | 3.5 | 0.00 | 0.00 | 0.00 | 41 | 1015.2 |
| 20260507213029 | 68 | 352 | 1.7 | 7.0 | 0.00 | 0.00 | 0.00 | 42 | 1015.4 |
| 20260507211528 | 68 | 240 | 3.5 | 7.0 | 0.00 | 0.00 | 0.00 | 40 | 1015.4 |
| 20260507210028 | 67 | 255 | 1.7 | 7.0 | 0.00 | 0.00 | 0.00 | 40 | 1015.6 |
| 20260507204523 | 68 | 210 | 2.6 | 6.1 | 0.00 | 0.00 | 0.00 | 38 | 1015.6 |
| 20260507203027 | 68 | 252 | 0.9 | 7.0 | 0.00 | 0.00 | 0.00 | 40 | 1015.8 |
| 20260507201528 | 67 | 244 | 0.9 | 3.5 | 0.00 | 0.00 | 0.00 | 39 | 1016.1 |
| 20260507200013 | 67 | 30 | 3.5 | 7.8 | 0.00 | 0.00 | 0.00 | 38 | 1016.1 |
| 20260507194523 | 67 | 297 | 1.7 | 7.0 | 0.00 | 0.00 | 0.00 | 40 | 1016.6 |
| 20260507193015 | 67 | 184 | 2.6 | 7.8 | 0.00 | 0.00 | 0.00 | 41 | 1016.7 |
| 20260507191512 | 66 | 305 | 1.7 | 7.8 | 0.00 | 0.00 | 0.00 | 38 | 1016.7 |
| 20260507190018 | 66 | 186 | 0.9 | 6.1 | 0.00 | 0.00 | 0.00 | 40 | 1016.8 |
| 20260507184521 | 65 | 217 | 1.7 | 4.3 | 0.00 | 0.00 | 0.00 | 39 | 1017.0 |
| 20260507183017 | 66 | 144 | 1.7 | 6.1 | 0.00 | 0.00 | 0.00 | 41 | 1017.3 |
| 20260507181508 | 65 | 144 | 2.6 | 6.1 | 0.00 | 0.00 | 0.00 | 36 | 1017.5 |
| 20260507180018 | 64 | 317 | 1.7 | 5.2 | 0.00 | 0.00 | 0.00 | 39 | 1017.8 |
| 20260507174519 | 64 | 260 | 1.7 | 9.6 | 0.00 | 0.00 | 0.00 | 1018.1 | |
| 20260507173037 | 64 | 184 | 0.9 | 4.3 | 0.00 | 0.00 | 0.00 | 42 | 1018.2 |
| 20260507171520 | 63 | 208 | 0.9 | 7.0 | 0.00 | 0.00 | 0.00 | 42 | 1018.3 |
| 20260507170019 | 63 | 291 | 1.7 | 6.1 | 0.00 | 0.00 | 0.00 | 1018.4 | |
| 20260507164522 | 62 | 115 | 0.0 | 3.5 | 0.00 | 0.00 | 0.00 | 42 | 1018.5 |
| 20260507163011 | 61 | 295 | 0.9 | 4.3 | 0.00 | 0.00 | 0.00 | 47 | 1018.8 |
| 20260507161523 | 60 | 182 | 0.9 | 5.2 | 0.00 | 0.00 | 0.00 | 46 | 1019.0 |
| 20260507160027 | 59 | 190 | 0.9 | 3.5 | 0.00 | 0.00 | 0.00 | 52 | 1019.2 |
| 20260507154516 | 58 | 186 | 0.9 | 4.3 | 0.00 | 0.00 | 0.00 | 46 | 1019.4 |
| 20260507153022 | 57 | 187 | 0.9 | 2.6 | 0.00 | 0.00 | 0.00 | 55 | 1019.2 |
| 20260507151517 | 56 | 340 | 0.9 | 2.6 | 0.00 | 0.00 | 0.00 | 66 | 1019.2 |
| 20260507150017 | 54 | 128 | 0.0 | 1.7 | 0.00 | 0.00 | 0.00 | 72 | 1019.3 |
| 20260507144534 | 52 | 345 | 0.9 | 2.6 | 0.00 | 0.00 | 0.00 | 74 | 1019.4 |
| 20260507143023 | 51 | 216 | 0.0 | 2.6 | 0.00 | 0.00 | 0.00 | 76 | 1019.4 |
| 20260507141526 | 49 | 302 | 0.0 | 1.7 | 0.00 | 0.00 | 0.00 | 84 | 1019.4 |
| 20260507140025 | 47 | 126 | 0.0 | 2.6 | 0.00 | 0.00 | 0.00 | 90 | 1019.5 |
| 20260507134520 | 45 | 224 | 0.0 | 1.7 | 0.00 | 0.00 | 0.00 | 93 | 1019.9 |
| 20260507133021 | 44 | 180 | 0.0 | 0.9 | 0.00 | 0.00 | 0.00 | 94 | 1019.8 |
| 20260507131524 | 41 | 182 | 0.0 | 1.7 | 0.00 | 0.00 | 0.00 | 94 | 1019.9 |
| 20260507130023 | 40 | 138 | 0.0 | 1.7 | 0.00 | 0.00 | 0.00 | 93 | 1019.8 |
| 20260507124534 | 40 | 138 | 0.0 | 0.9 | 0.00 | 0.00 | 0.00 | 93 | 1019.7 |
| 20260507123021 | 39 | 138 | 0.0 | 1.7 | 0.00 | 0.00 | 0.00 | 93 | 1019.4 |
| 20260507121518 | 38 | 160 | 0.0 | 1.7 | 0.00 | 0.00 | 0.00 | 93 | 1019.5 |
| 20260507120019 | 38 | 161 | 0.0 | 3.5 | 0.00 | 0.00 | 0.00 | 94 | 1019.3 |
| 20260507114534 | 38 | 175 | 0.0 | 1.7 | 0.00 | 0.00 | 0.00 | 93 | 1019.5 |
| 20260507113038 | 38 | 184 | 0.0 | 0.9 | 0.00 | 0.00 | 0.00 | 93 | 1018.9 |
| 20260507111528 | 38 | 183 | 0.0 | 0.9 | 0.00 | 0.00 | 0.00 | 93 | 1018.8 |
| 20260507110022 | 38 | 178 | 0.0 | 0.0 | 0.00 | 0.00 | 0.00 | 94 | 1018.9 |
| 20260507104508 | 38 | 178 | 0.0 | 0.9 | 0.00 | 0.00 | 0.00 | 93 | 1018.8 |
| 20260507103017 | 38 | 178 | 0.0 | 0.9 | 0.00 | 0.00 | 0.00 | 93 | 1018.8 |
| 20260507101519 | 38 | 173 | 0.9 | 2.6 | 0.00 | 0.00 | 0.00 | 93 | 1018.8 |
| 20260507100018 | 38 | 189 | 0.0 | 0.9 | 0.00 | 0.00 | 0.00 | 93 | 1019.1 |
| 20260507094517 | 39 | 189 | 0.0 | 1.7 | 0.00 | 0.00 | 0.00 | 93 | 1018.8 |
| 20260507093010 | 39 | 192 | 0.0 | 1.7 | 0.00 | 0.00 | 0.00 | 93 | 1019.0 |
| 20260507091512 | 39 | 188 | 0.9 | 2.6 | 0.00 | 0.00 | 0.00 | 93 | 1018.9 |
| 20260507090013 | 39 | 202 | 0.0 | 1.7 | 0.00 | 0.00 | 0.00 | 93 | 1018.6 |
| 20260507084509 | 39 | 181 | 0.0 | 1.7 | 0.00 | 0.00 | 0.00 | 93 | 1018.5 |
| 20260507083012 | 39 | 186 | 0.0 | 0.9 | 0.00 | 0.00 | 0.00 | 93 | 1018.5 |
| 20260507081511 | 39 | 186 | 0.0 | 0.9 | 0.00 | 0.00 | 0.00 | 93 | 1018.2 |
| 20260507080013 | 40 | 186 | 0.0 | 0.9 | 0.00 | 0.00 | 0.00 | 93 | 1018.6 |
| 20260507074519 | 40 | 187 | 0.0 | 1.7 | 0.00 | 0.00 | 0.00 | 92 | 1018.5 |
| 20260507073016 | 40 | 186 | 0.0 | 1.7 | 0.00 | 0.00 | 0.00 | 92 | 1018.6 |
| 20260507071517 | 41 | 190 | 0.9 | 1.7 | 0.00 | 0.01 | 0.00 | 92 | 1018.8 |
| 20260507070018 | 41 | 180 | 0.0 | 1.7 | 0.00 | 0.02 | 0.00 | 92 | 1018.8 |
| 20260507064519 | 41 | 184 | 0.9 | 1.7 | 0.00 | 0.02 | 0.00 | 92 | 1018.7 |
| 20260507063020 | 41 | 177 | 0.0 | 0.9 | 0.00 | 0.02 | 0.00 | 92 | 1018.8 |
| 20260507061523 | 42 | 177 | 0.0 | 1.7 | 0.00 | 0.02 | 0.00 | 92 | 1018.9 |